Location: Azul
(36.7830°S, 59.8500°W)
Time: 09:47:49
(UTC-03:00)

ISS - Pass Details

Date: 11 December 2019
Orbit: 411 x 421 km, 51.6° (Epoch: 11 December)

Event Time Altitude Azimuth Distance (km) Brightness Sun altitude
Exits shadow 01:51:03 - 218° (SW) 1,589 -0.4 -28.7°
Reaches altitude 10° 01:51:37 10° 208° (SSW) 1,530 -0.4 -28.6°
Maximum altitude 01:52:16 10° 198° (SSW) 1,506 -0.3 -28.6°
Drops below altitude 10° 01:52:55 10° 187° (S) 1,531 -0.1 -28.6°
Sets 01:56:46 0° 143° (SE) 2,398 1.1 -28.3°
